Home > Weather > Apeldoorn > Past weeks

Flag for Netherlands Past Weather in Apeldoorn, Netherlands — Yesterday and Last 2 Weeks

Now
73 °F

Overcast.


Feels Like: 76 °F
Forecast: 62 / 83 °F
Wind: 10 mph from North

Location: Deelen

Current Time: Aug 26, 2016 at 8:49:59 PM

Latest Report: Aug 26, 2016 at 8:25 PM


Visibility: N/A

Pressure: 30.07 "Hg

Humidity: 65%

Dew Point: 61 °F

Location of ApeldoornLocation

Past Weather in Apeldoorn — Graph

°F

Apeldoorn Temperature Yesterday

Maximum temperature yesterday: 90 °F (at 4:25 PM)
Minimum temperature yesterday: 68 °F (at 5:25 AM)
Average temperature yesterday: 77 °F

High & Low Weather Summary for the Past Weeks

 TemperatureHumidityPressure
High90 °F (Aug 25, 4:25 PM)100% (Aug 11, 7:25 PM)30.30 "Hg (Aug 11, 7:25 PM)
Low46 °F (Aug 15, 6:55 AM)33% (Aug 24, 4:25 PM)29.77 "Hg (Aug 19, 2:55 PM)
Average66 °F74%30.06 "Hg
* Reported Aug 11 7:25 PM — Aug 26 7:25 PM, Apeldoorn, Weather by CustomWeather, © 2016

Note: Actual official high and low records may vary slightly from our data, if they occured in-between our weather recording intervals... More about our weather records

Advertising

Apeldoorn Weather History for the Previous 24 Hours

Scroll right to see more
 ConditionsComfort  
Time TempWeatherWind HumidityBarometerVisibility
7:25 PM
Fri, Aug 26
75 °FPartly sunny.10 mph65%30.07 "HgN/A
6:55 PM77 °FWarm.12 mph61%30.07 "HgN/A
6:25 PM79 °FWarm.12 mph61%30.07 "HgN/A
5:55 PM81 °FPassing clouds.8 mph62%30.04 "HgN/A
5:25 PM81 °FWarm.9 mph58%30.04 "HgN/A
4:55 PM81 °FWarm.8 mph58%30.04 "HgN/A
4:25 PM81 °FWarm.8 mph58%30.04 "HgN/A
3:55 PM81 °FPassing clouds.10 mph58%30.04 "HgN/A
3:25 PM82 °FWarm.8 mph55%30.04 "HgN/A
2:55 PM82 °FWarm.15 mph55%30.04 "HgN/A
2:25 PM82 °FWarm.12 mph58%30.04 "HgN/A
1:55 PM82 °FWarm.8 mph55%30.01 "HgN/A
1:25 PM82 °FWarm.6 mph55%30.01 "HgN/A
12:55 PM82 °FWarm.7 mph58%30.01 "HgN/A
12:25 PM81 °FPassing clouds.6 mph58%30.01 "HgN/A
11:55 AM79 °FWarm.6 mph61%30.01 "HgN/A
11:25 AM79 °FWarm.7 mph61%30.01 "HgN/A
10:55 AM77 °FWarm.7 mph65%30.01 "HgN/A
10:25 AM75 °FHaze.14 mph69%29.98 "Hg5 mi
9:55 AM77 °FPassing clouds.8 mph65%29.98 "HgN/A
9:25 AM75 °FHaze.2 mph74%29.95 "Hg6 mi
8:55 AM73 °FFog.1 mph78%29.95 "Hg6 mi
8:25 AM70 °FPassing clouds.2 mph83%29.95 "HgN/A
7:55 AM66 °FMild.2 mph88%29.95 "HgN/A
7:25 AM66 °FMild.1 mph88%29.95 "HgN/A
6:55 AM68 °FMild.3 mph83%29.95 "HgN/A
6:25 AM68 °FMild.3 mph83%29.92 "HgN/A
5:55 AM70 °FPassing clouds.5 mph78%29.92 "HgN/A
5:25 AM68 °FMild.3 mph78%29.92 "HgN/A
4:55 AM70 °FPassing clouds.6 mph73%29.92 "HgN/A
4:25 AM68 °FPassing clouds.5 mph78%29.92 "HgN/A
3:55 AM70 °FMild.5 mph73%29.92 "HgN/A
3:25 AM68 °FPassing clouds.2 mph73%29.92 "HgN/A
2:55 AM70 °FMild.3 mph69%29.92 "HgN/A
2:25 AM68 °FMild.3 mph73%29.92 "HgN/A
1:55 AM68 °FMild.3 mph73%29.92 "HgN/A
1:25 AM68 °FPassing clouds.2 mph73%29.92 "HgN/A
12:55 AM66 °FMild.2 mph83%29.92 "HgN/A
12:25 AM66 °FMild.3 mph83%29.92 "HgN/A
11:55 PM
Thu, Aug 25
68 °FMild.2 mph78%29.92 "HgN/A
11:25 PM68 °FMild.1 mph83%29.92 "HgN/A
10:55 PM70 °FMild.3 mph78%29.92 "HgN/A
10:25 PM72 °FMild.2 mph69%29.95 "HgN/A
9:55 PM72 °FMild.3 mph73%29.95 "HgN/A
9:25 PM72 °FMild.2 mph73%29.95 "HgN/A
8:55 PM77 °FWarm.3 mph61%29.92 "HgN/A
8:25 PM81 °FWarm.5 mph58%29.92 "HgN/A
Weather by CustomWeather, © 2016

See weather overviewHow to use our weather pages